Weather reports worldwide

Advertisment
Colmar, France (7197): temperature & dewpoint: 12.01.2018 07:00:00 - 18.01.2018 07:00:00 (CET)Colmar, France (7197): temperature 5cm: 12.01.2018 07:00:00 - 18.01.2018 07:00:00 (CET)Colmar, France (7197): temperature -20cm & temperature -100cm: 12.01.2018 07:00:00 - 18.01.2018 07:00:00 (CET)Colmar, France (7197): wind speed & gusts: 12.01.2018 07:00:00 - 18.01.2018 07:00:00 (CET)Colmar, France (7197): wind direction: 12.01.2018 07:00:00 - 18.01.2018 07:00:00 (CET)Colmar, France (7197): reduced air pressure: 12.01.2018 07:00:00 - 18.01.2018 07:00:00 (CET)Colmar, France (7197): visibility: 12.01.2018 07:00:00 - 18.01.2018 07:00:00 (CET)Colmar, France (7197): sunshine duration: 12.01.2018 07:00:00 - 18.01.2018 07:00:00 (CET)Colmar, France (7197): precipitation: 12.01.2018 07:00:00 - 18.01.2018 07:00:00 (CET)
Date & Time tt [°C] td [°C] tt 5cm [°C] tt -20cm [°C] tt -100cm [°C] ff [km/h] ff [kn] fx [km/h] fx [kn] dd ppp [hPa] vv [km] sd [min] rr [mm]
18.01.2018 07:00:00 3,5 2,0 2,8 3,8 6,6 34 18 64 35 SW 1011,5 20 0 0,8
18.01.2018 06:00:00 3,7 2,1 3,0 3,9 6,7 33 18 58 31 SW 1012,2 20 0 0,4
18.01.2018 05:00:00 3,8 2,2 3,1 3,8 6,6 25 14 45 25 SSW 1013,8 20 0 0,6
18.01.2018 04:00:00 4,3 2,2 3,2 3,8 6,6 26 14 42 23 SSW 1014,7 20 0 0,4
18.01.2018 03:00:00 4,2 1,7 3,1 3,9 6,7 23 13 45 25 SSW 1016,0 20 0 0,2
18.01.2018 02:00:00 4,6 1,4 3,0 3,9 6,6 26 14 40 22 SSW 1016,6 20 0 0,2
18.01.2018 01:00:00 4,0 1,4 2,8 3,9 6,7 18 10 41 22 SSW 1017,1 20 0 0,0
18.01.2018 00:00:00 4,0 0,9 2,5 3,9 6,6 18 10 39 21 SSW 1017,4 20 0 0,0
17.01.2018 23:00:00 3,8 0,7 3,2 4,0 6,7 23 12 39 21 SSW 1017,5 20 0 0,0
17.01.2018 22:00:00 4,5 -0,5 3,4 4,0 6,7 19 10 37 20 SSW 1017,2 20 0 0,0
17.01.2018 21:00:00 4,5 -0,1 3,7 4,1 6,7 21 12 36 19 SSW 1017,1 20 0 0,0
17.01.2018 20:00:00 4,5 0,1 3,2 4,2 6,7 17 9 30 16 SW 1016,8 20 0 0,0
17.01.2018 19:00:00 4,5 -0,1 3,3 4,3 6,7 23 13 36 19 WSW 1016,4 20 0 0,0
17.01.2018 18:00:00 4,3 -1,1 3,1 4,4 6,7 13 7 42 23 WSW 1015,9 20 0 0,0
17.01.2018 17:00:00 3,9 -1,3 2,6 4,5 6,7 14 8 60 32 SW 1014,5 20 5 0,0
17.01.2018 16:00:00 3,8 -0,6 2,3 4,5 6,7 16 9 37 20 WSW 1014,1 20 0 0,2
17.01.2018 15:00:00 5,0 -0,6 5,4 4,4 6,7 22 12 42 23 SW 1013,4 20 19 0,0
17.01.2018 14:00:00 5,5 -2,8 5,9 4,2 6,7 27 15 44 24 W 1013,2 20 25 0,0
17.01.2018 13:00:00 5,5 -2,6 5,0 4,1 6,7 25 13 51 28 W 1012,4 20 33 0,0
17.01.2018 12:00:00 5,1 -1,4 0,4 4,1 6,6 25 13 52 28 WNW 1011,7 20 27 0,0
17.01.2018 11:00:00 1,3 0,0 0,2 4,1 6,7 32 17 62 33 W 1011,0 5 12 0,8
17.01.2018 10:00:00 4,9 -2,5 1,4 4,3 6,6 40 22 66 36 W 1008,4 20 25 0,0
17.01.2018 09:00:00 2,1 0,5 1,3 4,4 6,6 13 7 44 24 W 1007,7 19 0 0,4
17.01.2018 08:00:00 3,9 -0,9 2,7 4,5 6,6 27 15 51 27 WNW 1006,0 20 0 0,0
17.01.2018 07:00:00 4,7 -1,3 3,6 4,6 6,6 31 17 58 31 W 1004,8 20 0 0,0
17.01.2018 06:00:00 4,7 -0,3 3,0 4,8 6,6 25 14 60 33 W 1003,8 20 0 0,0
17.01.2018 05:00:00 4,6 1,3 3,5 4,9 6,6 23 13 41 22 WSW 1002,9 20 0 0,0
17.01.2018 04:00:00 4,3 2,2 3,2 4,9 6,6 16 9 29 16 SSW 1002,1 20 0 0,2
17.01.2018 03:00:00 4,6 2,3 3,5 5,0 6,6 15 8 36 19 WSW 1002,1 20 0 1,0
17.01.2018 02:00:00 5,9 2,5 4,5 5,1 6,6 13 7 40 21 W 1001,3 20 0 0,0
17.01.2018 01:00:00 5,7 3,0 4,3 5,2 6,6 12 7 27 15 SW 1001,1 20 0 0,8
17.01.2018 00:00:00 6,0 4,5 5,1 5,2 6,6 18 10 33 18 SW 1001,6 13 0 0,6
16.01.2018 23:00:00 6,6 2,9 5,3 5,3 6,6 17 9 30 16 SSW 1002,0 20 0 0,0
16.01.2018 22:00:00 6,8 2,9 4,8 5,4 6,6 21 11 35 19 WSW 1003,1 20 0 0,0
16.01.2018 21:00:00 5,8 3,6 3,6 5,5 6,6 12 6 24 13 S 1003,1 20 0 0,0
16.01.2018 20:00:00 6,2 4,5 5,3 5,5 6,6 5 3 15 8 ESE 1003,3 11 0 1,6
16.01.2018 19:00:00 7,6 4,7 5,9 5,5 6,6 8 5 43 23 SW 1002,5 13 0 0,4
16.01.2018 18:00:00 8,1 3,4 6,1 5,6 6,6 26 14 43 23 WSW 1002,6 20 0 0,0
16.01.2018 17:00:00 7,8 4,4 6,2 5,5 6,6 16 9 32 18 SW 1003,1 20 6 0,2
16.01.2018 16:00:00 9,4 4,2 8,0 5,4 6,7 29 15 59 32 WSW 1003,6 20 14 0,0
16.01.2018 15:00:00 10,1 3,8 7,4 5,3 6,7 38 20 61 33 W 1002,8 20 21 0,0
16.01.2018 14:00:00 8,6 4,6 7,0 5,1 6,6 28 15 44 24 W 1002,8 20 0 1,8
16.01.2018 13:00:00 8,2 6,3 7,4 4,9 6,7 18 10 51 28 SW 1002,5 19 0 1,6
16.01.2018 12:00:00 9,6 6,5 8,4 4,7 6,7 30 16 54 29 SW 1002,1 20 4 0,0
16.01.2018 11:00:00 9,9 6,6 8,2 4,4 6,7 33 18 56 30 SW 1002,4 20 32 0,0
16.01.2018 10:00:00 8,8 6,4 7,0 4,3 6,7 26 14 42 23 SW 1002,8 20 14 0,8
16.01.2018 09:00:00 8,1 6,4 6,9 4,1 6,7 28 15 54 29 SW 1003,1 18 4 1,0
16.01.2018 08:00:00 8,0 6,0 6,6 4,0 6,7 29 15 53 28 SW 1002,4 20 0 0,2
16.01.2018 07:00:00 7,8 5,9 6,5 3,9 6,7 35 19 66 35 SW 1002,4 20 0 0,6
16.01.2018 06:00:00 7,5 6,0 6,5 3,8 6,7 35 19 59 32 SW 1001,9 20 0 0,6
16.01.2018 05:00:00 7,6 5,4 6,6 3,7 6,8 33 18 55 30 SW 1002,9 20 0 0,0
16.01.2018 04:00:00 7,6 5,1 6,6 3,6 6,8 35 19 59 32 SSW 1003,6 20 0 0,0
16.01.2018 03:00:00 7,8 4,7 6,6 3,4 6,8 37 20 61 33 SSW 1004,1 20 0 0,0
16.01.2018 02:00:00 8,0 4,9 6,4 3,2 6,8 37 20 69 37 SSW 1004,6 20 0 0,2
16.01.2018 01:00:00 7,9 4,7 5,9 3,1 6,8 43 23 79 42 SW 1004,8 20 0 0,0
16.01.2018 00:00:00 7,3 4,6 5,2 2,9 6,8 39 21 66 36 SW 1005,1 20 0 0,0
15.01.2018 23:00:00 6,5 4,5 5,2 2,8 6,8 25 14 50 27 SSW 1005,7 20 0 0,6
15.01.2018 22:00:00 6,1 4,3 5,1 2,6 6,9 27 15 49 27 SSW 1006,8 20 0 1,2
15.01.2018 21:00:00 6,2 4,7 5,0 2,4 6,9 26 14 55 30 SSW 1007,4 17 0 1,0
15.01.2018 20:00:00 5,9 4,4 5,0 2,3 6,9 26 14 66 36 SSW 1007,9 20 0 1,2
15.01.2018 19:00:00 6,8 3,8 5,2 2,1 6,9 28 15 50 27 SW 1008,4 20 0 0,6
15.01.2018 18:00:00 6,8 0,9 5,9 1,9 6,9 13 7 36 20 SE 1009,3 20 0 0,0
15.01.2018 17:00:00 6,9 0,8 6,0 1,7 6,9 14 7 38 21 S 1010,6 20 0 0,0
15.01.2018 16:00:00 6,9 1,0 6,0 1,6 6,9 21 11 41 22 S 1011,6 20 0 0,0
15.01.2018 15:00:00 6,5 0,4 6,0 1,6 6,9 22 12 38 20 S 1013,4 20 0 0,0
15.01.2018 14:00:00 6,4 0,1 5,9 1,5 6,9 18 10 31 17 S 1014,8 20 0 0,0
15.01.2018 13:00:00 5,7 -0,6 5,4 1,6 7,0 16 9 30 16 S 1016,3 20 0 0,0
15.01.2018 12:00:00 5,1 -0,5 4,3 1,6 7,0 15 8 31 17 S 1017,6 20 0 0,0
15.01.2018 11:00:00 3,8 -0,2 1,5 1,6 7,0 9 5 18 10 S 1019,1 20 15 0,0
15.01.2018 10:00:00 1,5 -1,1 0,4 1,7 7,0 11 6 17 9 SSW 1019,9 13 0 0,0
15.01.2018 09:00:00 0,5 -1,3 -1,2 1,7 7,0 9 5 17 9 SW 1020,5 10 0 0,0
15.01.2018 08:00:00 -0,9 -2,0 -1,5 1,7 7,0 8 5 17 9 WSW 1021,1 7 0 0,0
15.01.2018 07:00:00 -1,3 -2,6 -1,8 1,8 7,1 9 5 15 8 SSW 1021,2 7 0 0,0
15.01.2018 06:00:00 -0,8 -2,1 -1,5 1,8 7,1 11 6 22 12 WSW 1021,4 7 0 0,0
15.01.2018 05:00:00 -1,0 -2,4 -3,2 1,9 7,1 14 8 21 12 SSW 1021,5 7 0 0,0
15.01.2018 04:00:00 -1,6 -3,0 -4,2 1,9 7,1 7 4 11 6 SSW 1022,1 6 0 0,0
15.01.2018 03:00:00 -1,2 -2,5 -4,1 2,0 7,1 7 4 13 7 SW 1022,6 7 0 0,0
15.01.2018 02:00:00 -0,9 -2,2 -4,8 2,1 7,1 11 6 16 9 SSW 1022,5 7 0 0,0
15.01.2018 01:00:00 -1,3 -2,3 -4,9 2,0 7,1 7 4 10 5 SSW 1023,1 6 0 0,0
15.01.2018 00:00:00 -0,9 -2,3 -5,5 2,1 7,1 5 3 9 5 SSW 1023,4 7 0 0,0
14.01.2018 23:00:00 -1,3 -2,4 -4,9 2,2 7,2 4 2 10 5 WSW 1023,6 7 0 0,0
14.01.2018 22:00:00 -0,9 -2,0 -2,9 2,3 7,2 6 4 10 6 SW 1023,5 8 0 0,0
14.01.2018 21:00:00 -0,9 -2,2 -3,1 2,3 7,2 8 4 10 6 SW 1023,5 8 0 0,0
14.01.2018 20:00:00 -0,7 -1,7 -4,9 2,4 7,2 6 3 9 5 SSW 1023,3 9 0 0,0
14.01.2018 19:00:00 -1,8 -2,6 -4,8 2,4 7,2 4 2 7 4 SW 1023,3 4,9 0 0,0
14.01.2018 18:00:00 -0,7 -1,7 -3,7 2,5 7,2 5 3 6 3 SSE 1022,7 6 0 0,0
14.01.2018 17:00:00 2,3 -0,6 -0,1 2,4 7,2 2 1 6 3 ENE 1022,1 12 35 0,0
14.01.2018 16:00:00 4,6 0,0 7,7 2,3 7,2 2 1 5 3 N 1021,5 16 60 0,0
14.01.2018 15:00:00 5,0 0,4 8,7 2,1 7,2 0 0 6 3 N 1021,2 17 60 0,0
14.01.2018 14:00:00 4,2 0,9 8,0 2,1 7,2 0 0 9 5 N 1021,3 15 60 0,0
14.01.2018 13:00:00 4,0 0,9 5,9 2,1 7,3 2 1 5 3 W 1021,6 13 60 0,0
14.01.2018 12:00:00 0,8 0,4 2,2 2,2 7,3 3 2 6 3 W 1022,6 2,2 48 0,0
14.01.2018 11:00:00 0,6 0,5 -1,9 2,2 7,3 0 0 2 1 N 1022,9 4,1 46 0,0
14.01.2018 10:00:00 -3,0 -3,3 -4,7 2,3 7,3 0 0 4 2 N 1023,1 0,2 0 0,0
14.01.2018 09:00:00 -5,0 -5,4 -7,2 2,4 7,3 0 0 3 1 N 1023,0 0,1 0 0,0
14.01.2018 08:00:00 -6,3 -7,2 -7,7 2,5 7,3 0 0 0 0 N 1022,6 3,4 0 0,0
14.01.2018 07:00:00 -6,2 -7,3 -7,5 2,6 7,3 0 0 0 0 N 1022,4 8 0 0,0
14.01.2018 06:00:00 -5,8 -6,8 -7,6 2,7 7,3 0 0 3 2 N 1022,1 9 0 0,0
14.01.2018 05:00:00 -5,6 -6,6 -7,1 2,8 7,3 2 1 3 2 S 1022,2 8 0 0,0
14.01.2018 04:00:00 -4,9 -5,7 -6,9 2,9 7,4 0 0 3 2 N 1022,0 8 0 0,0
14.01.2018 03:00:00 -5,0 -5,8 -7,0 3,1 7,4 2 1 4 2 W 1022,1 6 0 0,0
14.01.2018 02:00:00 -4,8 -5,6 -6,3 3,2 7,3 3 1 4 2 S 1022,0 8 0 0,0
14.01.2018 01:00:00 -4,3 -5,1 -6,4 3,4 7,4 2 1 4 2 SSE 1022,1 6 0 0,0
14.01.2018 00:00:00 -4,1 -4,9 -6,1 3,5 7,4 3 2 4 2 SSW 1022,5 6 0 0,0
13.01.2018 23:00:00 -3,6 -4,4 -5,4 3,7 7,4 0 0 3 2 N 1022,4 4,2 0 0,0
13.01.2018 22:00:00 -3,2 -4,0 -5,4 3,9 7,4 3 2 5 3 S 1022,4 4,8 0 0,0
13.01.2018 21:00:00 -2,7 -3,5 -5,1 4,1 7,4 4 2 4 2 SSW 1022,5 7 0 0,0
13.01.2018 20:00:00 -1,7 -2,7 -4,4 4,4 7,4 0 0 3 1 N 1022,5 8 0 0,0
13.01.2018 19:00:00 -0,6 -1,7 -3,6 4,6 7,4 2 1 5 3 N 1022,4 10 0 0,0
13.01.2018 18:00:00 1,1 -1,6 -2,5 4,7 7,4 5 3 6 4 N 1022,2 20 0 0,0
13.01.2018 17:00:00 4,2 0,0 2,8 4,7 7,4 5 3 10 6 NNE 1022,1 20 34 0,0
13.01.2018 16:00:00 6,1 -0,4 7,9 4,5 7,4 7 4 12 6 N 1022,0 20 60 0,0
13.01.2018 15:00:00 6,6 -0,2 9,5 4,3 7,4 8 4 12 7 N 1022,0 20 60 0,0
13.01.2018 14:00:00 6,2 1,3 9,1 3,9 7,4 8 4 13 7 N 1022,5 20 60 0,0
13.01.2018 13:00:00 5,5 1,0 8,4 3,6 7,5 7 4 11 6 N 1023,3 20 57 0,0
13.01.2018 12:00:00 4,4 2,3 5,7 3,3 7,4 5 3 11 6 NNE 1024,2 12 60 0,0
13.01.2018 11:00:00 2,0 1,7 0,5 3,3 7,5 5 3 10 5 NNE 1024,6 6 20 0,0
13.01.2018 10:00:00 0,2 -0,1 -0,1 3,4 7,5 3 2 10 5 NE 1024,8 4,2 0 0,0
13.01.2018 09:00:00 -0,4 -0,7 -1,0 3,5 7,5 8 4 14 8 NE 1024,7 4,3 0 0,0
13.01.2018 08:00:00 -0,8 -1,1 -1,9 3,6 7,4 3 2 8 4 NE 1025,1 4,0 0 0,0
13.01.2018 07:00:00 -1,2 -1,5 -4,0 3,8 7,5 5 3 10 5 E 1025,4 4,8 0 0,0
13.01.2018 06:00:00 -2,0 -2,3 -4,2 3,9 7,5 3 2 8 5 NNE 1025,6 0,2 0 0,0
13.01.2018 05:00:00 -0,4 -0,5 -2,3 4,1 7,5 6 3 10 6 NE 1025,8 2,1 0 0,0
13.01.2018 04:00:00 -1,1 -1,4 -3,7 4,3 7,5 6 4 10 5 NNE 1026,3 0,3 0 0,0
13.01.2018 03:00:00 -2,0 -2,6 -4,0 4,6 7,5 3 1 5 3 E 1026,9 0,4 0 0,0
13.01.2018 02:00:00 0,4 -0,2 -2,8 4,8 7,5 3 2 9 5 NE 1026,4 3,1 0 0,0
13.01.2018 01:00:00 1,1 0,5 -1,1 5,0 7,4 6 3 11 6 NNE 1026,2 4,8 0 0,0
13.01.2018 00:00:00 1,4 0,8 -1,4 5,2 7,5 7 4 11 6 NNE 1026,3 7 0 0,0
12.01.2018 23:00:00 1,4 0,7 -1,6 5,4 7,5 3 2 7 4 N 1026,4 2,7 0 0,0
12.01.2018 22:00:00 2,9 2,0 2,2 5,5 7,5 2 1 8 4 NNE 1026,4 6 0 0,0
12.01.2018 21:00:00 3,9 2,6 3,0 5,6 7,5 4 2 8 5 NNE 1026,2 9 0 0,0
12.01.2018 20:00:00 4,7 3,0 4,5 5,6 7,5 3 2 8 5 N 1025,9 11 0 0,0
12.01.2018 19:00:00 5,0 2,7 4,7 5,7 7,5 0 0 6 4 N 1025,9 14 0 0,0
12.01.2018 18:00:00 5,0 2,7 4,8 5,7 7,5 3 2 8 4 NNE 1025,8 15 0 0,0
12.01.2018 17:00:00 5,1 2,8 5,0 5,7 7,5 4 2 14 8 N 1025,6 16 0 0,0
12.01.2018 16:00:00 5,4 2,2 5,4 5,6 7,5 9 5 22 12 N 1025,4 20 0 0,0
12.01.2018 15:00:00 5,4 2,4 5,8 5,5 7,5 14 8 23 12 N 1025,1 20 13 0,0
12.01.2018 14:00:00 5,5 3,0 5,5 5,4 7,5 14 8 21 11 N 1024,9 18 0 0,0
12.01.2018 13:00:00 5,4 2,9 5,7 5,3 7,5 8 5 18 10 NNE 1025,1 18 0 0,0
12.01.2018 12:00:00 5,2 3,0 5,7 5,2 7,5 12 6 20 11 N 1025,4 18 0 0,0
12.01.2018 11:00:00 5,0 3,5 5,4 5,1 7,5 9 5 21 11 NE 1025,5 11 35 0,0
12.01.2018 10:00:00 4,7 3,5 4,6 5,1 7,5 12 6 22 12 NE 1024,9 9 0 0,0
12.01.2018 09:00:00 4,6 3,7 4,4 5,1 7,5 8 5 20 11 NNE 1024,3 8 0 0,0
12.01.2018 08:00:00 4,5 3,8 3,8 5,0 7,5 8 5 23 13 NE 1024,0 8 0 0,0
12.01.2018 07:00:00 3,9 3,8 3,7 5,0 7,5 0 0 6 4 N 1023,8 0,8 0 0,0

tt = temperature
td = dewpoint
tt 5cm = temperature 5cm
tt -20cm = temperature -20cm
tt -100cm = temperature -100cm
ff = wind speed
fx = gusts
dd = wind direction
ppp = reduced air pressure
vv = visibility
sd = sunshine duration
rr = precipitation

Next stations